sat.trackr.live / text

‹ back to catalog

KUIPER-00229

NORAD 68578 · 2026-072F

PAYLOAD ACTIVE UNKNOWN

§ Identity

Operator
Country
US
Launch date
2026-04-04
Launch site
AFETR
Launch vehicle
Mass (kg)
RCS (m²)

External: N2YO · Heavens-Above · Gunter

§ Orbital elements

Epoch: 2026-09-20T00:04:06.595104Z

Period
97.30 min
Inclination
51.9003°
Eccentricity
0.0000644
Mean motion
14.79932147 rev/d
Perigee alt
629.1 km
Apogee alt
630.0 km
Semi-major
7,007.7 km
B*
5.2074e-6
RAAN
136.3802°
Arg perigee
117.4969°
Mean anomaly
242.6059°
Rev number
2,516

§ Raw data

KUIPER-002291 68578U 26072F   26263.00285411 -.00000181  00000+0  52074-5 0  99942 68578  51.9003 136.3802 0000644 117.4969 242.6059 14.79932147 25167

JSON: /api/v1/satellites/68578 · /tle

For live sub-satellite position, see the globe view (requires WebGL).

§ Visibility from observer

Set your observer location to see the next 7 days of passes ≥ 10°. The values pass through the URL so the page stays shareable.

No JS? Fill the form by hand. The geolocation button needs JavaScript.